sat.trackr.live / text

‹ back to catalog

STARLINK-2526

NORAD 48378 · 2021-038AB

PAYLOAD ACTIVE UNKNOWN

§ Identity

Operator
Country
US
Launch date
2021-05-04
Launch site
AFETR
Launch vehicle
Mass (kg)
RCS (m²)

Purposes: comms

External: N2YO · Heavens-Above · Gunter

§ Orbital elements

Epoch: 2026-09-19T22:01:15.193344Z

Period
94.01 min
Inclination
53.1583°
Eccentricity
0.0000962
Mean motion
15.31713439 rev/d
Perigee alt
470.0 km
Apogee alt
471.4 km
Semi-major
6,848.8 km
B*
-5.9936e-5
RAAN
164.1179°
Arg perigee
102.4146°
Mean anomaly
257.6963°
Rev number
29,698

§ Raw data

STARLINK-25261 48378U 21038AB  26262.91753696 -.00002225  00000+0 -59936-4 0  99962 48378  53.1583 164.1179 0000962 102.4146 257.6963 15.31713439296980

JSON: /api/v1/satellites/48378 · /tle

For live sub-satellite position, see the globe view (requires WebGL).

§ Visibility from observer

Set your observer location to see the next 7 days of passes ≥ 10°. The values pass through the URL so the page stays shareable.

No JS? Fill the form by hand. The geolocation button needs JavaScript.